User: anonymous   Login
Location: Bretagne
(43.8474°N, 0.4650°W)
Time: 03:44:43
(UTC+00:00)
Language:

Cosmos 1869 Rocket - Orbit

View from above orbital plane
View from above orbital plane
View from above satellite
View from above satellite

Ground track
Ground track

The orbit is defined by the following mean orbital elements,

1 18215U          26069.81143766 +.00000000 +00000-0 +70382-4 0 00003
2 18215  82.5145 172.2043 0020601  52.3679  69.0745 14.85637864    07
Epoch (UTC): 10 March 2026 19:28:28
Eccentricity: 0.0020601
inclination: 82.5145°
perigee height: 597 km
apogee height: 626 km
right ascension of ascending node: 172.2043°
argument of perigee: 52.3679°
revolutions per day: 14.85637864
mean anomaly at epoch: 69.0745°

The dashed part of the orbit path shows where the satellite is in the earth's shadow,  

DLR